Theta_e
333 336 332 322 314 318 315 318 325 325 324 331 331 327 323 322 319 314 335 337 338 339 346 352 360 360 360 361 361 361 360 359 357 356 355 355 355 355 355 355 355 355 354 354 353 353 354 354 353
326 322 322 318 313 309 314 320 320 325 330 331 330 326 322 318 327 329 332 336 338 342 344 348 361 361 360 360 360 359 359 357 357 356 356 356 355 355 355 356 356 356 356 356 356 355 355 353 352
323 323 316 316 316 312 313 321 323 327 330 329 329 332 325 322 330 331 337 338 339 340 346 357 361 360 360 359 359 358 357 357 357 356 356 355 355 356 355 356 356 355 355 355 355 354 354 354 353
320 321 317 312 313 315 317 322 325 325 328 331 331 324 331 336 332 335 340 338 338 341 349 358 361 360 359 359 358 357 357 357 356 356 355 355 355 355 355 355 354 353 353 352 352 351 351 351 351
321 319 312 313 313 315 319 322 326 324 326 328 326 321 328 339 337 338 339 339 338 343 348 352 360 359 359 358 358 357 357 357 357 357 357 356 356 355 354 353 352 352 352 352 352 352 352 351 351
316 318 311 310 312 316 320 323 327 325 326 328 327 329 331 339 337 338 340 338 339 343 347 351 359 359 359 358 358 357 357 357 357 357 356 355 354 354 354 353 353 352 352 352 352 352 352 352 352
315 314 312 313 313 315 320 323 326 325 325 325 333 327 331 334 338 340 340 340 340 344 348 351 351 356 359 359 358 357 357 357 356 355 354 353 353 352 350 349 349 349 349 350 350 350 350 351 352
316 316 312 312 312 316 322 323 329 327 326 333 337 327 328 335 340 341 340 340 340 342 345 347 351 348 349 352 358 357 356 355 355 354 354 353 352 351 350 352 353 351 352 352 352 351 351 351 353
318 312 311 312 314 320 324 323 332 335 333 337 341 338 339 340 340 339 338 338 339 340 343 345 346 347 346 349 354 356 356 355 354 353 353 350 348 351 351 353 353 351 352 352 352 352 353 353 352
314 313 315 320 324 322 323 325 328 329 332 335 338 343 343 341 337 335 335 334 336 338 340 344 346 347 347 344 355 350 352 350 351 351 355 350 349 348 345 350 350 351 352 355 356 356 355 351 333
316 314 320 320 326 325 326 326 327 326 327 334 334 338 340 339 336 334 334 335 336 339 342 344 351 354 350 345 346 346 346 347 349 352 352 351 347 346 345 344 349 351 350 351 351 353 351 343 339
312 315 317 320 326 325 325 332 330 333 333 337 337 337 336 335 335 333 333 335 337 340 344 346 349 354 354 350 348 346 343 345 344 347 352 352 347 348 347 343 342 344 347 349 349 346 348 347 346
314 314 315 319 323 328 331 330 331 332 335 336 337 337 337 338 340 342 342 342 343 342 346 344 349 352 356 356 349 348 346 344 345 347 348 348 347 348 349 350 347 344 342 341 345 346 348 348 349
315 314 314 317 322 326 327 329 329 333 337 336 337 338 340 340 342 343 344 345 347 349 349 351 350 355 355 357 357 353 350 348 347 347 348 351 351 352 352 353 353 352 349 345 343 344 347 348 349
315 311 312 313 318 318 322 318 325 334 336 334 335 337 338 338 340 340 342 344 347 349 351 349 351 352 356 358 359 357 353 351 349 348 351 353 356 357 358 354 354 354 356 354 352 350 350 348 349
311 312 307 312 313 316 315 310 326 334 334 332 333 334 335 337 339 341 344 346 348 349 349 351 351 351 354 357 357 355 356 355 354 356 355 355 357 357 356 358 358 358 361 358 354 353 351 350 348
309 304 306 309 314 312 312 312 324 331 331 331 333 333 334 336 338 340 342 344 347 349 350 350 352 352 354 356 357 358 359 354 352 352 352 351 351 351 351 352 354 357 358 357 354 351 352 351 350
305 305 307 307 311 312 309 310 323 326 327 329 332 332 333 333 334 337 338 341 343 344 346 348 350 354 356 356 354 351 350 348 348 345 344 345 346 345 346 347 348 350 348 351 352 353 354 354 354
309 307 306 309 315 312 310 310 319 324 325 327 330 331 332 331 333 335 335 336 336 337 338 340 343 348 348 346 348 345 343 344 345 341 342 342 342 340 345 341 342 341 340 341 339 339 340 346 352
308 307 307 310 312 312 311 312 317 322 324 326 328 330 331 330 330 331 332 332 332 333 336 337 338 341 341 341 343 342 343 340 340 340 341 339 339 340 339 340 340 341 339 340 339 337 335 338 343
307 306 307 307 312 312 312 310 314 321 325 327 329 330 332 330 328 328 328 328 328 329 331 332 334 336 337 339 338 340 339 333 330 331 331 334 335 336 338 339 337 339 341 337 339 339 338 333 336
304 310 309 307 308 304 313 302 312 317 320 324 326 328 329 329 328 327 326 326 326 326 329 331 332 332 332 335 333 334 326 325 325 326 329 330 332 330 332 335 336 339 336 338 337 339 339 339 334
308 311 309 308 307 306 307 303 306 316 315 319 324 327 328 327 326 325 325 325 325 325 326 328 329 329 330 330 331 325 327 323 323 324 328 329 330 328 326 330 331 333 331 335 335 336 335 333 333
312 308 308 308 306 299 305 304 304 310 315 318 323 326 327 326 324 325 326 326 325 324 325 326 327 328 329 329 330 330 328 326 324 324 322 322 322 323 327 326 328 331 332 332 332 336 335 334 332
309 307 299 298 299 298 307 303 305 312 314 314 315 325 327 327 323 323 323 324 324 323 323 324 327 326 328 327 327 328 328 327 326 325 322 323 320 321 326 328 328 326 331 330 332 333 333 332 328
308 307 301 295 297 300 307 301 307 317 318 318 319 320 326 325 323 323 323 324 324 324 322 323 325 325 327 327 327 328 325 323 323 325 324 322 322 323 328 327 327 326 326 326 330 325 324 330 327
307 304 309 303 304 300 303 307 314 316 315 317 318 321 323 323 322 322 323 325 325 325 324 325 326 326 326 327 327 327 327 327 325 326 328 323 326 324 326 326 326 326 325 325 328 323 327 326 328
308 311 303 304 295 294 300 302 304 311 311 316 317 319 320 321 321 321 323 325 325 326 327 325 326 326 326 327 327 326 326 326 327 328 326 327 328 327 327 326 325 325 324 324 326 324 326 326 323
307 305 307 307 304 298 296 300 311 310 312 315 318 321 321 320 321 322 323 325 327 327 326 325 325 325 326 326 326 325 325 325 327 327 326 327 328 328 326 325 325 324 323 324 325 324 322 320 323
311 309 309 302 301 304 302 302 315 314 313 317 318 321 323 323 323 323 323 325 325 325 325 325 325 324 325 325 325 325 325 326 326 326 327 328 327 328 327 326 324 324 322 324 321 319 318 317 318
Wind_Speed
12 16 12 9 10 10 12 12 14 9 13 8 15 15 20 18 15 11 12 18 19 18 16 15 11 11 11 12 13 12 11 11 11 10 10 11 10 9 9 9 9 9 10 10 9 9 9 8 7
14 11 11 9 7 3 10 15 18 13 12 8 7 21 22 23 20 18 15 16 18 17 14 14 11 12 11 11 11 11 11 11 11 11 10 9 9 9 8 8 8 8 8 9 9 8 7 6 5
14 11 12 9 10 12 14 17 14 13 4 8 15 17 10 12 12 19 17 17 17 16 17 14 12 11 10 10 10 10 9 10 10 10 10 9 8 8 7 7 6 6 6 6 6 6 5 5 4
7 8 8 12 5 10 15 14 10 14 11 10 20 17 13 11 8 18 17 17 15 16 18 14 13 12 10 10 9 9 9 9 9 9 8 8 7 6 6 5 4 4 4 4 3 2 1 2 4
9 9 12 14 8 11 10 9 5 15 16 12 21 20 15 9 16 17 15 13 15 17 17 15 12 11 10 10 9 8 8 8 8 7 7 7 6 6 5 4 3 3 2 2 2 2 2 3 4
9 7 12 12 11 10 9 6 5 18 18 21 20 18 14 13 15 15 14 12 13 16 16 14 12 11 10 9 9 8 8 7 7 7 6 6 5 5 5 5 5 4 4 4 4 5 6 7 7
14 10 15 5 16 10 13 4 10 18 18 13 20 20 14 15 15 14 13 12 13 12 17 13 13 11 9 8 9 8 8 7 6 5 5 5 5 5 5 6 6 6 6 6 7 7 8 9 10
9 10 11 6 8 18 7 2 5 21 19 9 11 15 17 17 14 13 12 13 13 10 13 13 13 14 12 11 9 8 8 7 7 7 6 6 7 8 9 9 10 8 7 8 8 9 9 9 10
9 11 11 7 5 15 10 9 15 18 17 18 16 18 22 18 14 13 12 12 12 9 11 12 11 11 11 15 11 10 9 9 8 9 9 9 10 12 12 8 10 8 8 9 10 11 10 10 12
9 14 17 11 7 15 10 13 12 14 18 17 19 17 18 16 15 13 12 11 12 10 10 10 6 9 6 4 12 10 11 10 10 9 10 9 1 4 7 1 9 9 11 12 14 13 12 12 10
6 4 12 4 8 3 13 13 8 12 14 16 18 19 18 17 12 12 11 11 10 10 8 5 5 1 6 6 5 5 5 5 4 5 4 4 6 4 5 4 8 8 15 9 12 12 9 14 9
5 5 8 8 5 12 16 11 14 20 17 16 17 17 14 12 10 9 6 4 4 6 6 5 6 3 3 6 5 4 3 3 4 5 5 5 5 5 5 5 7 5 7 7 6 7 7 6 8
8 8 5 5 5 10 12 13 14 17 16 17 16 14 13 12 9 8 8 7 9 5 7 2 4 3 2 5 6 4 4 4 3 2 4 5 6 5 6 6 7 8 8 8 8 8 7 8 10
4 5 6 8 10 15 16 15 10 11 14 14 14 13 11 11 11 8 6 7 4 3 3 7 6 3 6 5 5 5 4 4 4 4 4 4 5 6 7 7 8 7 8 8 8 9 8 9 10
6 9 7 7 8 8 10 12 11 12 13 13 13 11 10 9 8 7 5 5 2 4 1 3 5 2 3 6 4 5 5 4 4 4 4 5 6 7 8 9 9 9 8 11 9 10 10 11 11
12 16 13 14 6 7 8 6 15 13 13 13 12 10 9 9 9 8 8 7 6 6 5 4 6 4 4 5 3 3 2 3 4 7 11 13 10 11 9 10 9 9 10 8 9 10 11 11 10
14 14 16 14 14 7 11 7 13 13 12 11 10 10 10 10 9 7 8 8 8 8 8 7 7 7 4 3 4 7 5 8 7 7 8 11 10 11 10 9 9 12 9 10 10 9 10 10 9
15 15 16 13 14 11 14 11 12 11 12 11 11 10 9 9 8 7 8 8 9 9 9 9 8 6 5 6 8 5 4 4 6 5 7 8 8 9 8 7 9 10 9 10 12 12 11 12 10
11 4 11 8 9 8 13 17 13 10 11 13 11 11 10 9 9 8 8 9 10 9 9 9 9 7 5 5 2 5 4 3 6 5 7 7 7 8 6 7 7 7 7 8 9 8 10 10 9
11 8 10 7 3 7 10 13 5 11 13 11 14 13 12 10 10 9 9 9 9 9 9 9 9 8 7 6 5 3 2 5 5 6 6 9 9 10 8 8 8 8 7 7 7 6 5 3 4
15 14 9 7 9 11 7 16 15 16 14 11 10 11 12 13 12 10 10 10 9 9 9 9 9 8 8 6 4 5 6 3 5 5 7 8 9 10 10 10 8 9 6 7 8 8 7 6 7
14 9 6 2 10 13 12 13 18 19 16 15 13 11 11 11 10 11 11 10 9 10 10 10 8 7 8 7 7 7 6 6 5 5 6 5 8 10 10 11 9 8 8 9 9 10 8 7 8
8 5 8 8 11 14 12 9 12 19 14 16 16 16 14 13 11 12 12 11 11 10 10 9 8 8 8 8 7 5 7 4 5 5 4 2 5 9 11 10 10 10 8 8 10 8 10 8 5
5 7 8 12 14 14 17 17 12 8 18 20 22 15 14 13 13 12 12 12 10 10 10 9 8 8 7 8 8 8 7 7 6 5 5 4 5 7 10 10 10 9 10 10 9 8 9 7 5
10 10 9 13 13 14 5 5 10 9 6 6 3 14 15 14 14 14 14 13 12 11 11 9 8 8 7 7 7 7 7 5 6 7 6 6 6 7 8 9 9 9 9 10 9 10 9 7 9
16 14 11 14 10 6 10 6 4 10 5 2 1 8 11 15 15 15 15 13 12 10 10 9 9 8 7 6 6 5 2 4 4 6 6 6 6 5 6 7 8 9 10 11 10 8 9 9 9
12 8 9 10 14 13 14 15 11 9 5 1 4 6 10 14 15 16 16 11 12 11 10 9 9 8 7 7 6 5 4 4 5 2 4 5 4 7 7 8 8 9 9 10 11 9 9 8 9
12 8 7 11 13 15 13 8 8 11 6 5 6 8 11 13 15 14 14 12 11 13 11 10 9 9 7 7 6 6 5 4 2 1 3 4 4 6 7 8 8 8 9 9 10 10 11 9 9
10 13 12 12 11 11 10 7 4 6 1 2 6 9 12 14 14 13 13 16 13 12 14 11 10 9 7 6 5 4 4 3 1 3 5 5 6 7 9 9 10 10 9 9 9 11 12 13 11
9 12 10 10 11 12 11 11 9 1 3 6 7 8 10 12 13 13 14 12 12 12 9 12 7 7 7 6 5 4 4 4 4 5 7 8 9 11 11 10 8 9 9 9 11 13 12 14 14
Wind_Direction
242 222 239 259 241 226 91 106 103 111 85 70 51 68 64 40 26 71 112 99 110 115 120 128 119 114 110 111 114 114 115 117 116 110 106 108 107 102 99 100 98 95 93 90 88 90 90 85 83
286 270 249 270 241 340 101 88 70 74 82 85 72 82 68 66 79 99 108 117 112 119 131 124 117 115 115 116 116 118 122 121 118 114 110 106 105 104 101 94 94 96 97 94 93 87 83 84 83
260 264 273 258 277 111 86 88 97 98 93 117 98 60 67 100 66 95 113 115 113 128 113 115 119 116 116 115 116 121 124 122 119 115 113 111 111 112 112 112 109 101 96 92 89 85 76 67 54
261 214 239 261 60 47 88 100 97 109 99 78 117 91 76 54 104 113 123 116 143 121 110 125 129 128 127 125 127 129 130 127 124 121 120 119 118 118 125 128 126 124 121 118 121 115 66 14 358
230 262 255 245 91 108 96 91 228 98 90 77 93 97 101 107 110 129 127 143 125 118 118 133 132 132 134 134 137 140 141 139 134 131 130 131 134 139 147 154 162 169 182 184 198 229 257 276 285
241 269 245 217 115 117 108 122 228 101 102 108 108 99 89 121 131 134 141 140 124 119 131 136 135 139 141 143 147 150 152 152 151 150 153 157 165 174 182 193 201 213 231 247 248 259 269 274 274
258 214 249 275 112 149 108 166 233 118 90 79 124 105 118 144 135 140 148 132 120 132 119 138 144 140 147 153 155 160 162 164 167 169 176 187 196 200 210 218 225 231 242 258 268 267 272 278 281
285 280 261 240 149 119 132 174 358 97 81 77 359 120 145 127 140 148 144 141 137 148 133 147 147 165 172 162 165 168 175 179 183 190 196 210 223 219 219 225 217 225 240 248 252 255 258 270 279
230 257 206 153 255 112 150 160 61 77 81 65 54 79 120 140 152 158 154 152 149 155 141 148 170 149 187 140 156 176 188 194 198 205 210 218 238 186 189 160 156 212 238 253 255 256 257 256 253
241 245 56 35 17 125 160 130 143 140 119 100 97 102 126 147 163 158 163 158 152 162 152 139 129 122 145 150 148 204 177 200 203 200 170 224 234 325 325 152 184 214 236 245 242 240 242 246 253
239 49 88 104 14 151 86 100 196 108 77 110 117 128 144 152 162 161 169 157 160 147 115 121 105 39 303 205 174 207 198 199 196 237 252 260 319 275 228 233 208 214 205 237 201 218 227 228 241
251 60 75 105 200 158 140 88 65 68 87 112 120 120 124 136 151 159 135 105 89 116 77 93 115 159 241 307 198 244 262 222 240 197 181 227 254 242 258 293 316 283 217 254 257 269 243 284 268
241 128 124 162 136 58 116 110 99 96 106 114 119 125 113 99 83 51 51 39 33 101 94 184 13 126 286 206 275 266 295 249 279 238 222 277 301 302 289 302 295 293 298 289 277 268 270 271 250
118 183 148 175 130 151 133 140 136 113 118 119 117 113 106 109 104 98 72 54 67 48 10 25 305 91 283 222 280 300 243 285 238 265 297 332 286 298 300 288 277 278 277 274 273 271 273 271 273
209 209 185 184 166 156 142 158 111 138 137 129 122 118 117 114 104 96 117 115 108 112 21 356 247 119 309 296 235 232 275 304 304 301 301 273 293 301 302 288 289 289 280 283 278 272 265 262 259
233 233 193 176 177 130 251 182 137 156 152 149 141 137 128 110 100 103 104 79 77 54 56 38 352 356 70 10 296 275 338 296 333 355 36 9 3 14 351 317 318 341 323 310 292 286 278 274 271
207 234 242 147 186 187 224 149 144 164 170 153 165 162 141 130 112 96 95 91 79 69 49 45 41 30 23 75 74 55 32 50 20 11 10 6 355 349 340 323 333 349 315 300 318 321 306 313 299
212 215 245 209 172 222 215 232 143 172 180 175 176 166 160 139 118 107 99 87 85 76 67 58 51 47 64 44 60 68 99 77 68 32 25 6 6 355 345 338 343 343 338 338 349 337 324 311 316
322 229 264 204 88 284 238 235 163 178 205 186 184 178 167 143 134 125 115 111 100 89 82 62 65 49 48 68 49 60 46 106 113 80 33 21 15 12 354 355 357 357 348 349 347 341 345 336 330
258 248 238 66 315 257 246 264 172 189 214 205 201 185 169 148 155 140 130 117 106 99 90 79 71 51 40 61 85 80 12 61 28 54 66 19 18 13 10 1 349 5 345 359 357 353 333 303 341
234 244 226 254 162 232 250 235 193 212 211 206 202 188 172 175 159 152 144 128 118 103 94 85 76 67 50 23 116 143 164 96 29 47 24 47 19 17 14 10 5 350 340 1 349 350 342 325 321
228 230 341 243 234 249 196 272 174 194 200 190 195 206 181 174 160 161 149 138 121 109 102 90 71 70 66 33 65 50 58 35 13 26 53 29 28 21 17 8 6 7 355 10 354 358 346 340 329
44 115 227 253 268 280 211 240 289 170 200 202 203 193 193 174 173 168 160 144 132 133 116 105 96 89 77 65 39 71 26 87 56 23 9 58 72 49 10 16 4 6 354 3 349 4 12 5 344
51 240 234 251 253 251 242 250 252 200 198 202 185 190 186 173 178 174 153 149 148 137 128 123 116 107 99 91 83 77 70 50 27 31 359 19 36 43 25 22 8 12 356 357 348 354 353 1 15
225 233 239 230 227 235 139 213 258 103 57 353 348 172 176 180 180 175 169 169 164 152 148 136 135 126 117 102 95 92 82 65 68 343 42 352 35 26 26 13 16 10 7 358 351 325 339 10 345
201 246 265 286 283 297 138 246 206 79 104 19 259 276 175 178 185 182 182 171 169 156 155 150 149 146 138 122 111 102 57 73 84 63 15 26 2 43 3 4 5 3 5 2 356 332 336 359 330
262 236 290 300 283 274 286 270 142 134 133 141 234 215 182 181 187 184 179 162 169 166 167 173 157 155 155 140 133 131 115 53 74 68 303 26 11 338 13 344 348 349 353 358 350 360 334 341 338
264 335 228 215 256 262 268 280 340 151 180 163 221 197 183 188 188 184 167 179 183 179 171 179 177 173 168 166 162 158 158 168 138 326 345 328 321 321 320 319 326 332 340 350 347 342 333 336 324
181 229 241 278 306 305 289 285 60 351 8 183 208 186 190 195 195 183 183 186 192 180 176 181 185 179 179 191 181 183 227 216 252 296 300 302 303 297 304 310 311 315 324 340 337 333 325 336 325
306 292 253 240 242 243 259 267 35 237 258 181 216 203 197 197 200 199 193 186 195 193 202 168 197 206 191 200 216 226 243 258 278 288 295 301 315 316 304 293 299 318 325 337 326 324 349 330 321